Location: Arbon
(43.0005°N, 0.7472°E)
Time: 17:00:35
(UTC+00:00)

ADEOS II - Pass Details

Date: 07 August 2020
Orbit: 799 x 802 km, 98.5° (Epoch: 23 September)

Event Time Altitude Azimuth Distance (km) Brightness Sun altitude
Rises 02:19:05 0° 14° (NNE) 3,320 6.4 -22.9°
Reaches altitude 10° 02:21:26 10° 15° (NNE) 2,385 5.5 -22.7°
Maximum altitude 02:26:43 84° 103° (ESE) 810 2.0 -22.1°
Enters shadow 02:28:23 45° 188° (S) 1,075 2.3 -21.9°
